Change the Weather History Date:

Monday, August 19, 2013

  Actual Average (KNKT) Record (KNKT)
Temperature  
Mean Temperature 81 °F -  
Max Temperature 84 °F 85 °F 95 °F (2002)
Min Temperature 78 °F 68 °F 68 °F (1998)
Cooling Degree Days 16    
Growing Degree Days 31 (Base 50)    
Moisture  
Dew Point 73 °F    
Average Humidity 78    
Maximum Humidity 84    
Minimum Humidity 72    
Precipitation  
Precipitation 0.31 in - - ()
Sea Level Pressure  
Sea Level Pressure 30.14 in    
Wind  
Wind Speed 5 mph (NE)    
Max Wind Speed 10 mph    
Max Gust Speed -    
Visibility 8 miles    
Events Fog , Rain    
Averages and records for this station are not official NWS values.
T = Trace of Precipitation, MM = Missing Value Source: NWS Daily Summary

Daily Weather History Graph

Daily Weather History Graph

Search for Another Location

Airport or City:

Trip Planner

Search our weather history database for the weather conditions in past years. The results will help you decide how hot, cold, wet, or windy it might be!

Date:

Astronomy

Aug. 19, 2013 Rise Set
Actual Time 6:31 AM EDT 7:50 PM EDT
Civil Twilight 6:05 AM EDT 8:17 PM EDT
Nautical Twilight 5:33 AM EDT 8:48 PM EDT
Astronomical Twilight 5:00 AM EDT 9:21 PM EDT
Moon 6:40 PM EDT (8/19) 4:49 AM EDT (8/19)
Length of Visible Light 14h 12m
Length of Day
13h 19m
Waxing Gibbous, 97% of the Moon is Illuminated
Aug 19
Waxing Gibbous
Aug 20
Full
Aug 28
Last Quarter
Sep 5
New
Sep 12
First Quarter

Hourly Weather History & Observations

Time (EDT) Temp. Heat Index Dew Point Humidity Pressure Visibility Wind Dir Wind Speed Gust Speed Precip Events Conditions
12:57 AM - - - N/A% 30.19 in 7.0 mi Calm Calm - N/A   Clear
1:57 AM - - - N/A% 30.18 in 7.0 mi Calm Calm - N/A   Partly Cloudy
2:18 AM - - - N/A% 30.16 in 8.0 mi North 4.6 mph - N/A   Mostly Cloudy
2:57 AM - - - N/A% 30.17 in 7.0 mi North 4.6 mph - N/A   Overcast
3:57 AM - - - N/A% 30.16 in 10.0 mi North 4.6 mph - N/A   Overcast
4:07 AM - - - N/A% 30.14 in 10.0 mi NNE 4.6 mph - N/A   Mostly Cloudy
4:14 AM - - - N/A% 30.14 in 10.0 mi NNE 4.6 mph - N/A   Scattered Clouds
4:57 AM - - - N/A% 30.15 in 9.0 mi NNE 3.5 mph - N/A   Scattered Clouds
5:11 AM - - - N/A% 30.13 in 7.0 mi NNE 3.5 mph - N/A   Mostly Cloudy
5:57 AM - - - N/A% 30.15 in 3.0 mi North 5.8 mph - N/A   Overcast
6:52 AM - - - N/A% 30.14 in 0.5 mi ENE 4.6 mph - N/A Fog Fog
6:57 AM - - - N/A% 30.16 in 0.5 mi NE 5.8 mph - N/A Fog Fog
7:17 AM - - - N/A% 30.14 in 1.5 mi ENE 8.1 mph - N/A   Overcast
7:33 AM - - - N/A% 30.14 in 2.0 mi NE 5.8 mph - N/A   Overcast
7:47 AM - - - N/A% 30.15 in 1.5 mi ENE 4.6 mph - N/A   Overcast
7:57 AM - - - N/A% 30.17 in 1.5 mi East 5.8 mph - N/A   Overcast
8:05 AM - - - N/A% 30.15 in 3.0 mi ENE 5.8 mph - N/A   Overcast
8:18 AM - - - N/A% 30.15 in 8.0 mi ENE 5.8 mph - N/A   Overcast
8:36 AM - - - N/A% 30.15 in 9.0 mi ENE 6.9 mph - N/A   Overcast
9:06 AM - - - N/A% 30.15 in 0.5 mi NNE 9.2 mph - 0.18 in Rain Heavy Rain
9:19 AM - - - N/A% 30.15 in 2.0 mi ENE 6.9 mph - 0.22 in Rain Rain
9:30 AM - - - N/A% 30.14 in 4.0 mi NNE 6.9 mph - 0.22 in Rain Light Rain
9:54 AM - - - N/A% 30.14 in 9.0 mi NNE 3.5 mph - 0.22 in   Overcast
9:57 AM - - - N/A% 30.16 in 9.0 mi North 4.6 mph - 0.22 in   Overcast
10:41 AM - - - N/A% 30.14 in 10.0 mi ENE 5.8 mph - N/A   Overcast
10:57 AM - - - N/A% 30.17 in 10.0 mi ENE 3.5 mph - N/A   Overcast
11:29 AM - - - N/A% 30.15 in 10.0 mi East 4.6 mph - N/A   Overcast
11:36 AM - - - N/A% 30.16 in 10.0 mi ESE 5.8 mph - N/A   Overcast
11:54 AM - - - N/A% 30.16 in 10.0 mi East 5.8 mph - 0.00 in Rain Light Rain
11:57 AM - - - N/A% 30.18 in 10.0 mi ENE 5.8 mph - 0.00 in Rain Light Rain
12:04 PM 82.4 °F 89.5 °F 75.2 °F 79% 30.15 in 10.0 mi East 6.9 mph - N/A   Overcast
12:19 PM 82.4 °F 88.2 °F 73.4 °F 74% 30.15 in 10.0 mi East 5.8 mph - N/A   Overcast
12:57 PM 84.9 °F 93.3 °F 75.0 °F 72% 30.16 in 10.0 mi East 6.9 mph - N/A   Mostly Cloudy
1:57 PM 82.9 °F 89.4 °F 73.9 °F 74% 30.15 in 10.0 mi SSW 4.6 mph - N/A   Mostly Cloudy
2:10 PM 78.8 °F - 71.6 °F 78% 30.14 in 10.0 mi NNW 5.8 mph - N/A   Mostly Cloudy
2:57 PM 78.1 °F - 73.0 °F 84% 30.14 in 6.0 mi NNE 6.9 mph - 0.02 in Rain Light Rain
3:04 PM 78.8 °F - 71.6 °F 78% 30.13 in 10.0 mi NNE 10.4 mph - 0.00 in Rain Light Rain
3:26 PM - - - N/A% 30.12 in 2.5 mi NE 8.1 mph - 0.03 in Rain Heavy Rain
3:44 PM - - - N/A% 30.12 in 4.0 mi ENE 8.1 mph - 0.07 in Rain Light Rain
3:57 PM - - - N/A% 30.14 in 9.0 mi ENE 8.1 mph - 0.07 in Rain Light Rain
4:30 PM - - - N/A% 30.11 in 10.0 mi ENE 10.4 mph - 0.00 in   Overcast
4:54 PM - - - N/A% 30.12 in 10.0 mi NE 8.1 mph - 0.00 in   Overcast
4:57 PM - - - N/A% 30.14 in 10.0 mi NE 8.1 mph - 0.00 in   Overcast
5:57 PM 79.0 °F - 72.0 °F 79% 30.12 in 10.0 mi NE 6.9 mph - N/A   Overcast
6:11 PM 78.8 °F - 71.6 °F 78% 30.10 in 10.0 mi NE 5.8 mph - N/A   Overcast
6:57 PM 78.1 °F - 72.0 °F 81% 30.11 in 10.0 mi ENE 6.9 mph - N/A   Scattered Clouds
7:57 PM - - - N/A% 30.12 in 10.0 mi NE 3.5 mph - N/A   Clear
8:11 PM - - - N/A% 30.09 in 10.0 mi East 3.5 mph - N/A   Partly Cloudy
8:57 PM - - - N/A% 30.13 in 10.0 mi NNE 4.6 mph - N/A   Scattered Clouds
9:12 PM - - - N/A% 30.12 in 10.0 mi NNE 5.8 mph - N/A   Mostly Cloudy
9:50 PM - - - N/A% 30.12 in 10.0 mi NNE 3.5 mph - N/A   Mostly Cloudy
9:57 PM - - - N/A% 30.15 in 10.0 mi Calm Calm - N/A   Scattered Clouds
10:57 PM - - - N/A% 30.13 in 10.0 mi NNE 3.5 mph - N/A   Clear
11:11 PM - - - N/A% 30.12 in 10.0 mi NNE 3.5 mph - N/A   Partly Cloudy
11:57 PM - - - N/A% 30.14 in 9.0 mi NE 3.5 mph - N/A   Overcast